Date String (YYYY-MM-DD hh:mm:ss) UTC,Instrument flags,Ambient pressure (hPa),Sample flow (lpm),Bypass flow (lpm),Sample temperature (°C),Ambient temperature (°C),ASC tube jacket temperature (°C),LED temperature (°C),Box temperature (°C),Sample RH (%),Span deviation,Mass concentration (μg/m³),Mass concentration (μg/m³),Mass concentration (μg/m³)
DateTimeUTC,F1_M11,P_M11,Q1_M11,Q2_M11,T1_M11,T2_M11,T3_M11,T4_M11,T5_M11,U1_M11,ZSPAN_M11,X0_M11,X2_M11,X1_M11
2023-05-04 09:00:00,,0824.8,4.99,0.00,29.1,27.3,00.0,37.7,30.6,12.0,0000.0,0011.10,0004.52,0003.18
2023-05-04 09:01:00,,0824.8,5.00,0.00,29.1,27.3,00.0,37.7,30.6,12.0,0000.0,0011.55,0004.59,0003.19
2023-05-04 09:02:00,,0824.7,5.00,0.00,29.1,27.3,00.0,37.6,30.6,12.0,0000.0,0011.31,0004.66,0003.20
2023-05-04 09:03:00,,0824.7,5.00,0.00,29.1,27.3,00.0,37.6,30.6,12.1,0000.0,0011.73,0004.67,0003.21
2023-05-04 09:04:00,,0824.7,5.01,0.00,29.1,27.3,00.0,37.6,30.6,12.1,0000.0,0011.84,0004.68,0003.21
2023-05-04 09:05:00,,0824.8,5.01,0.00,29.1,27.3,00.0,37.6,30.6,12.0,0000.0,0011.89,0004.74,0003.22
2023-05-04 09:06:00,,0824.8,5.00,0.00,29.1,27.3,00.0,37.6,30.6,12.1,0000.0,0012.20,0004.76,0003.23
2023-05-04 09:07:00,,0824.8,5.01,0.00,29.1,27.3,00.0,37.6,30.7,12.1,0000.0,0012.23,0004.82,0003.24
2023-05-04 09:08:00,,0824.8,5.00,0.00,29.1,27.4,00.0,37.6,30.7,12.0,0000.0,0012.24,0004.83,0003.26
2023-05-04 09:09:00,,0824.8,5.00,0.00,29.1,27.4,00.0,37.6,30.7,11.9,0000.0,0012.20,0004.80,0003.26
2023-05-04 09:10:00,,0824.8,4.99,0.00,29.1,27.4,00.0,37.6,30.7,11.9,0000.0,0012.55,0004.80,0003.25
2023-05-04 09:11:00,,0824.9,5.01,0.00,29.1,27.4,00.0,37.6,30.7,11.9,0000.0,0012.76,0004.85,0003.26
2023-05-04 09:12:00,,0824.9,5.01,0.00,29.1,27.4,00.0,37.5,30.6,11.9,0000.0,0012.72,0004.78,0003.27
2023-05-04 09:13:00,,0824.9,5.01,0.00,29.1,27.4,00.0,37.5,30.7,12.0,0000.0,0012.41,0004.78,0003.27
2023-05-04 09:14:00,,0824.9,4.98,0.00,29.1,27.4,00.0,37.5,30.6,12.0,0000.0,0012.66,0004.82,0003.29
2023-05-04 09:15:00,,0824.9,5.00,0.00,29.1,27.4,00.0,37.5,30.7,12.0,0000.0,0012.72,0004.85,0003.29
2023-05-04 09:16:00,,0824.9,5.01,0.00,29.1,27.3,00.0,37.5,30.6,12.0,0000.0,0012.54,0004.84,0003.28
2023-05-04 09:17:00,,0824.9,5.01,0.00,29.0,27.3,00.0,37.5,30.5,12.1,0000.0,0013.20,0004.87,0003.27
2023-05-04 09:18:00,,0824.9,5.00,0.00,29.0,27.3,00.0,37.5,30.5,12.2,0000.0,0013.42,0004.92,0003.27
2023-05-04 09:19:00,,0824.9,4.98,0.00,29.0,27.3,00.0,37.5,30.5,12.1,0000.0,0013.41,0004.90,0003.26
2023-05-04 09:20:00,,0824.9,5.01,0.00,29.0,27.3,00.0,37.5,30.5,12.2,0000.0,0013.54,0004.90,0003.26
2023-05-04 09:21:00,,0824.9,5.01,0.00,29.0,27.3,00.0,37.5,30.5,12.3,0000.0,0013.41,0004.90,0003.25
2023-05-04 09:22:00,,0824.9,5.00,0.00,29.0,27.3,00.0,37.5,30.6,12.4,0000.0,0013.59,0004.84,0003.23
2023-05-04 09:23:00,,0824.9,4.99,0.00,29.0,27.3,00.0,37.5,30.6,12.3,0000.0,0013.61,0004.84,0003.22
2023-05-04 09:24:00,,0824.9,5.01,0.00,29.0,27.3,00.0,37.4,30.6,12.3,0000.0,0016.05,0004.83,0003.21
2023-05-04 09:25:00,,0824.9,5.01,0.00,29.0,27.3,00.0,37.4,30.6,12.3,0000.0,0016.14,0004.82,0003.20
2023-05-04 09:26:00,,0824.9,5.00,0.00,29.0,27.3,00.0,37.4,30.5,12.3,0000.0,0016.01,0004.81,0003.20
2023-05-04 09:27:00,,0824.9,5.00,0.00,29.0,27.3,00.0,37.4,30.5,12.2,0000.0,0016.73,0004.81,0003.21
2023-05-04 09:28:00,,0824.9,5.00,0.00,29.0,27.3,00.0,37.4,30.5,12.3,0000.0,0016.73,0004.80,0003.21
2023-05-04 09:29:00,,0824.9,5.00,0.00,29.0,27.3,00.0,37.4,30.6,12.1,0000.0,0016.55,0004.71,0003.21
2023-05-04 09:30:00,,0824.9,5.01,0.00,29.0,27.3,00.0,37.4,30.6,12.1,0000.0,0016.53,0004.73,0003.21
2023-05-04 09:31:00,,0824.9,5.00,0.00,29.0,27.3,00.0,37.4,30.6,12.1,0000.0,0016.63,0004.78,0003.22
2023-05-04 09:32:00,,0824.9,5.00,0.00,29.0,27.3,00.0,37.4,30.6,12.1,0000.0,0016.55,0004.86,0003.23
2023-05-04 09:33:00,,0824.9,5.00,0.00,29.0,27.4,00.0,37.4,30.6,12.3,0000.0,0016.49,0004.93,0003.24
2023-05-04 09:34:00,,0824.9,5.00,0.00,29.0,27.5,00.0,37.4,30.6,12.2,0000.0,0016.12,0004.92,0003.26
2023-05-04 09:35:00,,0824.9,5.00,0.00,29.0,27.5,00.0,37.4,30.6,12.1,0000.0,0014.82,0004.92,0003.26
2023-05-04 09:36:00,,0824.9,5.00,0.00,29.1,27.6,00.0,37.4,30.6,12.2,0000.0,0013.76,0004.91,0003.26
2023-05-04 09:37:00,,0824.9,4.98,0.00,29.1,27.6,00.0,37.4,30.6,12.1,0000.0,0013.81,0004.90,0003.27
2023-05-04 09:38:00,,0824.9,5.00,0.00,29.1,27.7,00.0,37.4,30.7,12.1,0000.0,0013.46,0004.89,0003.27
2023-05-04 09:39:00,,0824.9,5.00,0.00,29.1,27.6,00.0,37.4,30.7,12.1,0000.0,0012.10,0004.88,0003.27
2023-05-04 09:40:00,,0824.9,5.00,0.00,29.1,27.6,00.0,37.5,30.7,12.1,0000.0,0011.96,0004.87,0003.27
2023-05-04 09:41:00,,0824.9,5.01,0.00,29.1,27.7,00.0,37.5,30.7,12.1,0000.0,0012.81,0004.88,0003.26
2023-05-04 09:42:00,,0824.9,5.00,0.00,29.1,27.7,00.0,37.5,30.7,12.1,0000.0,0012.81,0004.88,0003.25
2023-05-04 09:43:00,,0824.9,4.99,0.00,29.1,27.7,00.0,37.5,30.7,12.1,0000.0,0012.63,0004.81,0003.25
2023-05-04 09:44:00,,0824.9,5.00,0.00,29.1,27.7,00.0,37.5,30.7,12.1,0000.0,0013.20,0004.77,0003.26
2023-05-04 09:45:00,,0824.9,5.01,0.00,29.1,27.7,00.0,37.5,30.8,12.1,0000.0,0013.46,0004.81,0003.27
2023-05-04 09:46:00,,0824.9,5.00,0.00,29.1,27.7,00.0,37.5,30.8,12.0,0000.0,0013.28,0004.85,0003.29
2023-05-04 09:47:00,,0824.9,4.99,0.00,29.1,27.6,00.0,37.5,30.7,12.0,0000.0,0013.58,0004.90,0003.31
2023-05-04 09:48:00,,0824.9,5.01,0.00,29.1,27.6,00.0,37.5,30.7,12.1,0000.0,0014.05,0004.90,0003.30
2023-05-04 09:49:00,,0824.9,5.01,0.00,29.1,27.5,00.0,37.5,30.7,12.1,0000.0,0013.99,0004.88,0003.30
2023-05-04 09:50:00,,0824.9,5.00,0.00,29.1,27.5,00.0,37.5,30.7,12.1,0000.0,0014.21,0004.87,0003.31
2023-05-04 09:51:00,,0824.9,5.01,0.00,29.1,27.4,00.0,37.5,30.7,12.0,0000.0,0014.82,0004.91,0003.32
2023-05-04 09:52:00,,0824.9,5.00,0.00,29.1,27.4,00.0,37.5,30.7,12.1,0000.0,0014.35,0004.89,0003.33
2023-05-04 09:53:00,,0824.9,4.99,0.00,29.1,27.4,00.0,37.5,30.6,12.0,0000.0,0014.42,0004.86,0003.32
2023-05-04 09:54:00,,0824.9,5.00,0.00,29.1,27.3,00.0,37.5,30.6,12.1,0000.0,0014.85,0004.87,0003.32
2023-05-04 09:55:00,,0824.9,5.00,0.00,29.0,27.3,00.0,37.5,30.5,12.1,0000.0,0015.33,0004.90,0003.31
2023-05-04 09:56:00,,0824.9,5.01,0.00,29.0,27.2,00.0,37.5,30.5,12.1,0000.0,0015.31,0004.89,0003.29
2023-05-04 09:57:00,,0824.9,5.00,0.00,29.0,27.2,00.0,37.4,30.4,12.1,0000.0,0015.34,0004.85,0003.27
2023-05-04 09:58:00,,0824.9,5.00,0.00,28.9,27.2,00.0,37.4,30.4,12.1,0000.0,0014.64,0004.80,0003.27
2023-05-04 09:59:00,,0824.9,5.00,0.00,28.9,27.2,00.0,37.4,30.3,12.1,0000.0,0013.71,0004.75,0003.25
